Location: Slanting_Bridge
(35.6330°N, 80.9830°W)
Time: 07:41:27
(UTC-05:00)

Hamsat - Visible Passes

Search period start: 26 November 2014 00:00
Search period end: 06 December 2014 00:00
Orbit: 593 x 626 km, 97.6° (Epoch: 25 November)

Date Brightness Start Highest point End Pass type
(mag) Time Alt. Az. Time Alt. Az. Time Alt. Az.
26 Nov ? 05:00:18 10° ENE 05:02:17 13° E 05:04:17 10° ESE visible
26 Nov ? 06:34:15 10° N 06:38:25 46° WNW 06:42:34 10° SSW visible
27 Nov ? 05:13:22 10° NE 05:16:28 19° E 05:19:34 10° SE visible
27 Nov ? 17:38:10 10° S 17:42:18 64° W 17:46:31 10° NNW visible
28 Nov ? 05:26:54 10° NE 05:30:37 27° E 05:34:20 10° SSE visible
28 Nov ? 17:52:25 10° S 17:56:23 42° W 18:00:25 10° NNW visible
29 Nov ? 05:40:38 10° NNE 05:44:44 40° E 05:48:49 10° SSE visible
29 Nov ? 18:06:52 10° SSW 18:10:30 28° W 18:14:11 10° NW visible
30 Nov ? 05:54:30 10° NNE 05:58:49 60° E 06:03:06 10° S visible
30 Nov ? 18:21:34 10° SW 18:24:37 20° W 18:27:43 10° NW visible
01 Dec ? 06:08:29 10° NNE 06:12:52 89° ESE 06:17:13 10° SSW visible
01 Dec ? 18:36:43 10° WSW 18:38:46 13° W 18:40:51 10° WNW visible
02 Dec ? 06:22:34 10° N 06:26:53 62° WNW 06:31:10 10° SSW visible
03 Dec ? 05:02:26 10° ENE 05:04:46 14° E 05:07:07 10° SE visible
03 Dec ? 06:36:45 10° N 06:40:51 42° WNW 06:44:56 10° SW visible
04 Dec ? 05:15:37 10° NE 05:18:54 21° E 05:22:10 10° SE visible
04 Dec ? 17:40:31 10° S 17:44:39 58° W 17:48:53 10° NNW visible
05 Dec ? 05:29:10 10° NE 05:33:00 30° E 05:36:48 10° SSE visible
05 Dec ? 17:54:46 10° SSW 17:58:42 38° W 18:02:42 10° NNW visible
